When you browse on this site, cookies collect data to enhance your experience and personalize the content and advertising you see.
Visit our Privacy Policy to learn more. By continuing to use the site, you agree to this use of cookies and data.
  • In Austria
  • List of Countries
  • For 7 days
  • Water Temperature
  • Weather Map
  • News
  • Weather Widgets
  • user-avatar
    Login

    Hourly Weather Zasluchne

    Today, 27 January, Monday

    Time Temperature Precipitation Wind Pressure Humidity
    00:00 -2°C° 0 mm 2 mps 738 mmHg 79%
    01:00 -1°C° 0 mm 2 mps 738 mmHg 79%
    02:00 -1°C° 0 mm 2 mps 737 mmHg 81%
    03:00 -1°C° 0 mm 2 mps 737 mmHg 81%
    04:00 -1°C° 0 mm 2 mps 736 mmHg 82%
    05:00 -1°C° 0 mm 2 mps 736 mmHg 82%
    06:00 -1°C° 0 mm 2 mps 736 mmHg 83%
    07:00 -1°C° 0 mm 2 mps 736 mmHg 84%
    08:00 -1°C° 0 mm 2 mps 736 mmHg 86%
    09:00 +1°C° 0 mm 2 mps 736 mmHg 82%
    10:00 +2°C° 0 mm 2 mps 736 mmHg 79%
    11:00 +3°C° 0 mm 2 mps 735 mmHg 76%
    12:00 +4°C° 0 mm 2 mps 735 mmHg 76%
    13:00 +4°C° 0 mm 2 mps 735 mmHg 76%
    14:00 +6°C° 0 mm 1 mps 735 mmHg 77%
    15:00 +4°C° 0 mm 2 mps 734 mmHg 81%
    16:00 +3°C° 0 mm 2 mps 734 mmHg 84%
    17:00 +2°C° 0 mm 2 mps 734 mmHg 88%
    18:00 +2°C° 0 mm 2 mps 734 mmHg 89%
    19:00 +2°C° 0 mm 2 mps 734 mmHg 90%
    20:00 +1°C° 0 mm 2 mps 734 mmHg 91%
    21:00 +1°C° 0 mm 2 mps 734 mmHg 90%
    22:00 +1°C° 0 mm 2 mps 734 mmHg 90%
    23:00 -1°C° 0 mm 2 mps 734 mmHg 89%

    Tomorrow, 28 January, Tuesday

    Time Temperature Precipitation Wind Pressure Humidity
    00:00 -1°C° 0 mm 2 mps 733 mmHg 88%
    01:00 -1°C° 0 mm 2 mps 733 mmHg 87%
    02:00 -1°C° 0 mm 2 mps 733 mmHg 85%
    03:00 -1°C° 0 mm 2 mps 733 mmHg 84%
    04:00 +1°C° 0 mm 1 mps 732 mmHg 83%
    05:00 +1°C° 0 mm 1 mps 732 mmHg 82%
    06:00 +1°C° 0 mm 1 mps 732 mmHg 84%
    07:00 +1°C° 0 mm 1 mps 732 mmHg 86%
    08:00 +1°C° 0 mm 1 mps 732 mmHg 88%
    09:00 +1°C° 0 mm 2 mps 731 mmHg 86%
    10:00 +2°C° 0 mm 3 mps 731 mmHg 84%
    11:00 +3°C° 0 mm 3 mps 731 mmHg 83%
    12:00 +3°C° 0 mm 3 mps 730 mmHg 81%
    13:00 +4°C° 0 mm 4 mps 730 mmHg 80%
    14:00 +4°C° 0 mm 4 mps 729 mmHg 78%
    15:00 +3°C° 0 mm 4 mps 729 mmHg 80%
    16:00 +1°C° 0 mm 4 mps 728 mmHg 83%
    17:00 +1°C° 0 mm 3 mps 727 mmHg 85%
    18:00 0°C° 0 mm 4 mps 727 mmHg 86%
    19:00 0°C° 0 mm 4 mps 727 mmHg 87%
    20:00 0°C° 0 mm 4 mps 727 mmHg 87%
    21:00 0°C° 0 mm 4 mps 726 mmHg 88%
    22:00 0°C° 0 mm 4 mps 726 mmHg 88%
    23:00 0°C° 0 mm 5 mps 725 mmHg 88%

    Day after tomorrow, 29 January, Wednesday

    Time Temperature Precipitation Wind Pressure Humidity
    00:00 0°C° 0 mm 5 mps 725 mmHg 89%
    01:00 -1°C° 0 mm 5 mps 724 mmHg 89%
    02:00 -1°C° 0 mm 5 mps 723 mmHg 90%
    03:00 -1°C° 0 mm 5 mps 722 mmHg 91%
    04:00 -1°C° 0 mm 5 mps 721 mmHg 92%
    05:00 -1°C° 0 mm 5 mps 720 mmHg 93%
    06:00 -1°C° 0.2 mm 5 mps 720 mmHg 93%
    07:00 -1°C° 0.2 mm 6 mps 720 mmHg 92%
    08:00 -1°C° 0.2 mm 6 mps 719 mmHg 92%
    09:00 -1°C° 0.3 mm 7 mps 719 mmHg 93%
    10:00 -2°C° 0.3 mm 8 mps 720 mmHg 95%
    11:00 -3°C° 0.3 mm 9 mps 720 mmHg 96%
    12:00 -3°C° 0.9 mm 9 mps 720 mmHg 92%
    13:00 -3°C° 0.9 mm 9 mps 721 mmHg 87%
    14:00 -3°C° 0.9 mm 9 mps 721 mmHg 83%
    15:00 -2°C° 0.1 mm 8 mps 721 mmHg 83%
    16:00 -2°C° 0.1 mm 8 mps 721 mmHg 82%
    17:00 -2°C° 0.1 mm 7 mps 722 mmHg 82%
    18:00 -2°C° 0.1 mm 7 mps 722 mmHg 85%
    19:00 -3°C° 0.1 mm 7 mps 722 mmHg 88%
    20:00 -3°C° 0.1 mm 7 mps 722 mmHg 91%
    21:00 -4°C° 0.3 mm 8 mps 722 mmHg 93%
    22:00 -4°C° 0.3 mm 8 mps 722 mmHg 95%
    23:00 -4°C° 0.3 mm 8 mps 722 mmHg 96%

    30 January, Thursday

    Time Temperature Precipitation Wind Pressure Humidity
    00:00 -4°C° 0.6 mm 9 mps 722 mmHg 96%
    01:00 -4°C° 0.6 mm 10 mps 723 mmHg 96%
    02:00 -4°C° 0.6 mm 10 mps 723 mmHg 96%
    03:00 -4°C° 0.4 mm 10 mps 723 mmHg 96%
    04:00 -4°C° 0.4 mm 11 mps 723 mmHg 95%
    05:00 -4°C° 0.4 mm 11 mps 723 mmHg 95%
    06:00 -4°C° 0.1 mm 11 mps 724 mmHg 93%
    07:00 -4°C° 0.1 mm 11 mps 724 mmHg 91%
    08:00 -4°C° 0.1 mm 11 mps 724 mmHg 88%
    09:00 -3°C° 0 mm 11 mps 725 mmHg 90%
    10:00 -3°C° 0 mm 11 mps 725 mmHg 91%
    11:00 -3°C° 0 mm 11 mps 725 mmHg 93%
    12:00 -3°C° 0.2 mm 11 mps 726 mmHg 93%
    13:00 -3°C° 0.2 mm 11 mps 726 mmHg 93%
    14:00 -3°C° 0.2 mm 11 mps 726 mmHg 93%
    15:00 -3°C° 0.1 mm 11 mps 727 mmHg 93%
    16:00 -3°C° 0.1 mm 11 mps 727 mmHg 93%
    17:00 -4°C° 0.1 mm 11 mps 727 mmHg 93%
    18:00 -4°C° 0.1 mm 11 mps 728 mmHg 90%
    19:00 -4°C° 0.1 mm 11 mps 728 mmHg 87%
    20:00 -4°C° 0.1 mm 10 mps 729 mmHg 84%
    21:00 -4°C° 0 mm 10 mps 729 mmHg 84%
    22:00 -4°C° 0 mm 9 mps 729 mmHg 83%
    23:00 -5°C° 0 mm 8 mps 730 mmHg 83%

    31 January, Friday

    Time Temperature Precipitation Wind Pressure Humidity
    00:00 -5°C° 0 mm 8 mps 730 mmHg 84%
    01:00 -4°C° 0 mm 7 mps 730 mmHg 84%
    02:00 -4°C° 0 mm 6 mps 730 mmHg 85%
    03:00 -4°C° 0 mm 6 mps 730 mmHg 87%
    04:00 -4°C° 0 mm 6 mps 730 mmHg 88%
    05:00 -4°C° 0 mm 6 mps 730 mmHg 90%
    06:00 -4°C° 0 mm 5 mps 730 mmHg 90%
    07:00 -3°C° 0 mm 4 mps 729 mmHg 89%
    08:00 -3°C° 0 mm 4 mps 729 mmHg 89%
    09:00 -2°C° 0 mm 4 mps 729 mmHg 87%
    10:00 -2°C° 0 mm 5 mps 729 mmHg 86%
    11:00 -1°C° 0 mm 5 mps 728 mmHg 85%
    12:00 -1°C° 0.2 mm 5 mps 728 mmHg 85%
    13:00 -1°C° 0.2 mm 5 mps 727 mmHg 86%
    14:00 0°C° 0.2 mm 5 mps 727 mmHg 87%
    15:00 -1°C° 0.7 mm 5 mps 726 mmHg 90%
    16:00 -1°C° 0.7 mm 5 mps 726 mmHg 94%
    17:00 -1°C° 0.7 mm 5 mps 725 mmHg 97%
    18:00 -1°C° 0.7 mm 5 mps 725 mmHg 97%
    19:00 -1°C° 0.7 mm 4 mps 725 mmHg 97%
    20:00 0°C° 0.7 mm 4 mps 725 mmHg 98%
    21:00 0°C° 0.2 mm 4 mps 726 mmHg 97%
    22:00 0°C° 0.2 mm 4 mps 726 mmHg 97%
    23:00 +1°C° 0.2 mm 4 mps 726 mmHg 96%

    1 February, Saturday

    Time Temperature Precipitation Wind Pressure Humidity
    00:00 +1°C° 0.1 mm 4 mps 726 mmHg 97%
    01:00 +1°C° 0.1 mm 4 mps 727 mmHg 97%
    02:00 +1°C° 0.1 mm 4 mps 727 mmHg 97%
    03:00 +1°C° 0.1 mm 4 mps 727 mmHg 97%
    04:00 +1°C° 0.1 mm 5 mps 728 mmHg 96%
    05:00 +2°C° 0.1 mm 5 mps 728 mmHg 95%
    06:00 +1°C° 0 mm 5 mps 728 mmHg 95%
    07:00 +1°C° 0 mm 5 mps 728 mmHg 95%
    08:00 +1°C° 0 mm 5 mps 729 mmHg 95%
    09:00 +1°C° 0 mm 4 mps 729 mmHg 95%
    10:00 +3°C° 0 mm 4 mps 729 mmHg 95%
    11:00 +3°C° 0 mm 3 mps 730 mmHg 95%
    12:00 +4°C° 0 mm 3 mps 729 mmHg 93%
    13:00 +4°C° 0 mm 4 mps 729 mmHg 91%
    14:00 +5°C° 0 mm 4 mps 729 mmHg 90%
    15:00 +5°C° 0.1 mm 4 mps 729 mmHg 90%
    16:00 +4°C° 0.1 mm 4 mps 729 mmHg 91%
    17:00 +4°C° 0.1 mm 4 mps 729 mmHg 92%
    18:00 +4°C° 0 mm 4 mps 729 mmHg 91%
    19:00 +3°C° 0 mm 4 mps 729 mmHg 90%
    20:00 +3°C° 0 mm 4 mps 729 mmHg 90%
    21:00 +3°C° 0 mm 4 mps 729 mmHg 90%
    22:00 +3°C° 0 mm 4 mps 728 mmHg 90%
    23:00 +3°C° 0 mm 4 mps 728 mmHg 90%
    Show more